When you browse on this site, cookies collect data to enhance your experience and personalize the content and advertising you see.
Visit our Privacy Policy to learn more. By continuing to use the site, you agree to this use of cookies and data.
  • In Hungary
  • List of Countries
  • For 7 days
  • Water Temperature
  • Satellite Maps
  • Weather Map
  • News
  • Weather Widgets
  • user-avatar
    Login

    Hourly Weather Kulif

    Today, 18 November, Sunday

    Time Temperature Precipitation Wind Pressure Humidity
    00:00 +4°C° 0 mm 2 mps 680 mmHg 75%
    01:00 +3°C° 0 mm 2 mps 680 mmHg 73%
    02:00 +3°C° 0 mm 2 mps 680 mmHg 71%
    03:00 +3°C° 0 mm 2 mps 679 mmHg 68%
    04:00 +3°C° 0 mm 2 mps 679 mmHg 69%
    05:00 +2°C° 0 mm 2 mps 679 mmHg 70%
    06:00 +2°C° 0 mm 2 mps 679 mmHg 71%
    07:00 +3°C° 0 mm 2 mps 680 mmHg 67%
    08:00 +4°C° 0 mm 2 mps 680 mmHg 63%
    09:00 +6°C° 0 mm 1 mps 680 mmHg 59%
    10:00 +6°C° 0 mm 2 mps 680 mmHg 58%
    11:00 +6°C° 0 mm 2 mps 680 mmHg 58%
    12:00 +7°C° 0 mm 2 mps 680 mmHg 57%
    13:00 +6°C° 0 mm 2 mps 679 mmHg 62%
    14:00 +6°C° 0 mm 2 mps 679 mmHg 66%
    15:00 +6°C° 0 mm 2 mps 679 mmHg 70%
    16:00 +5°C° 0 mm 2 mps 679 mmHg 76%
    17:00 +5°C° 0 mm 1 mps 679 mmHg 81%
    18:00 +4°C° 0 mm 1 mps 679 mmHg 86%
    19:00 +4°C° 0 mm 1 mps 679 mmHg 83%
    20:00 +4°C° 0 mm 1 mps 679 mmHg 81%
    21:00 +3°C° 0 mm 1 mps 679 mmHg 79%
    22:00 +3°C° 0 mm 1 mps 679 mmHg 76%
    23:00 +3°C° 0 mm 1 mps 679 mmHg 73%

    Tomorrow, 19 November, Monday

    Time Temperature Precipitation Wind Pressure Humidity
    00:00 +3°C° 0 mm 1 mps 679 mmHg 71%
    01:00 +3°C° 0 mm 1 mps 679 mmHg 70%
    02:00 +3°C° 0 mm 1 mps 679 mmHg 70%
    03:00 +3°C° 0 mm 1 mps 679 mmHg 69%
    04:00 +3°C° 0 mm 1 mps 680 mmHg 69%
    05:00 +2°C° 0 mm 1 mps 680 mmHg 69%
    06:00 +2°C° 0 mm 1 mps 680 mmHg 68%
    07:00 +3°C° 0 mm 1 mps 680 mmHg 64%
    08:00 +4°C° 0 mm 1 mps 681 mmHg 60%
    09:00 +5°C° 0 mm 1 mps 681 mmHg 56%
    10:00 +6°C° 0 mm 1 mps 681 mmHg 56%
    11:00 +6°C° 0 mm 2 mps 681 mmHg 55%
    12:00 +7°C° 0 mm 2 mps 681 mmHg 55%
    13:00 +6°C° 0 mm 2 mps 681 mmHg 58%
    14:00 +7°C° 0 mm 1 mps 681 mmHg 62%
    15:00 +7°C° 0 mm 1 mps 680 mmHg 66%
    16:00 +6°C° 0 mm 1 mps 680 mmHg 67%
    17:00 +5°C° 0 mm 1 mps 680 mmHg 69%
    18:00 +4°C° 0 mm 1 mps 680 mmHg 70%
    19:00 +3°C° 0 mm 2 mps 680 mmHg 67%
    20:00 +3°C° 0 mm 2 mps 680 mmHg 63%
    21:00 +3°C° 0 mm 2 mps 680 mmHg 59%
    22:00 +3°C° 0 mm 2 mps 680 mmHg 57%
    23:00 +2°C° 0 mm 3 mps 680 mmHg 54%

    Day after tomorrow, 20 November, Tuesday

    Time Temperature Precipitation Wind Pressure Humidity
    00:00 +2°C° 0 mm 3 mps 680 mmHg 51%
    01:00 +2°C° 0 mm 3 mps 679 mmHg 49%
    02:00 +2°C° 0 mm 3 mps 679 mmHg 47%
    03:00 +3°C° 0 mm 3 mps 679 mmHg 45%
    04:00 +3°C° 0 mm 3 mps 678 mmHg 45%
    05:00 +3°C° 0 mm 3 mps 678 mmHg 44%
    06:00 +3°C° 0 mm 3 mps 678 mmHg 44%
    07:00 +6°C° 0 mm 2 mps 678 mmHg 43%
    08:00 +7°C° 0 mm 2 mps 678 mmHg 42%
    09:00 +9°C° 0 mm 2 mps 678 mmHg 41%
    10:00 +9°C° 0 mm 2 mps 678 mmHg 43%
    11:00 +10°C° 0 mm 2 mps 677 mmHg 44%
    12:00 +12°C° 0 mm 2 mps 677 mmHg 45%
    13:00 +12°C° 0 mm 1 mps 677 mmHg 49%
    14:00 +12°C° 0 mm 1 mps 676 mmHg 53%
    15:00 +11°C° 0 mm 1 mps 676 mmHg 57%
    16:00 +9°C° 0 mm 2 mps 676 mmHg 59%
    17:00 +8°C° 0 mm 2 mps 676 mmHg 61%
    18:00 +7°C° 0 mm 2 mps 676 mmHg 63%
    19:00 +7°C° 0 mm 3 mps 676 mmHg 63%
    20:00 +7°C° 0 mm 3 mps 675 mmHg 64%
    21:00 +7°C° 0 mm 3 mps 675 mmHg 65%
    22:00 +7°C° 0 mm 3 mps 675 mmHg 64%
    23:00 +7°C° 0 mm 3 mps 675 mmHg 63%

    21 November, Wednesday

    Time Temperature Precipitation Wind Pressure Humidity
    00:00 +7°C° 0 mm 2 mps 675 mmHg 63%
    01:00 +5°C° 0 mm 3 mps 675 mmHg 64%
    02:00 +5°C° 0 mm 3 mps 674 mmHg 66%
    03:00 +4°C° 0 mm 3 mps 674 mmHg 68%
    04:00 +4°C° 0.1 mm 3 mps 675 mmHg 69%
    05:00 +4°C° 0.1 mm 3 mps 675 mmHg 71%
    06:00 +4°C° 0.1 mm 4 mps 675 mmHg 72%
    07:00 +4°C° 0.1 mm 4 mps 675 mmHg 71%
    08:00 +5°C° 0.1 mm 4 mps 676 mmHg 70%
    09:00 +6°C° 0.1 mm 4 mps 676 mmHg 69%
    10:00 +6°C° 0 mm 4 mps 676 mmHg 68%
    11:00 +8°C° 0 mm 3 mps 676 mmHg 66%
    12:00 +8°C° 0 mm 3 mps 676 mmHg 65%
    13:00 +8°C° 0 mm 3 mps 676 mmHg 67%
    14:00 +8°C° 0 mm 3 mps 676 mmHg 69%
    15:00 +7°C° 0 mm 3 mps 676 mmHg 71%
    16:00 +5°C° 0 mm 3 mps 676 mmHg 76%
    17:00 +4°C° 0 mm 3 mps 676 mmHg 81%
    18:00 +3°C° 0 mm 3 mps 676 mmHg 86%
    19:00 +3°C° 0 mm 3 mps 677 mmHg 85%
    20:00 +3°C° 0 mm 3 mps 677 mmHg 85%
    21:00 +3°C° 0 mm 3 mps 677 mmHg 84%
    22:00 +3°C° 0 mm 3 mps 677 mmHg 84%
    23:00 +2°C° 0 mm 3 mps 677 mmHg 83%

    22 November, Thursday

    Time Temperature Precipitation Wind Pressure Humidity
    00:00 +3°C° 0 mm 2 mps 677 mmHg 82%
    01:00 +3°C° 0 mm 2 mps 676 mmHg 82%
    02:00 +3°C° 0 mm 2 mps 676 mmHg 82%
    03:00 +3°C° 0 mm 2 mps 676 mmHg 82%
    04:00 +3°C° 0 mm 2 mps 676 mmHg 83%
    05:00 +3°C° 0 mm 2 mps 676 mmHg 83%
    06:00 +4°C° 0 mm 1 mps 676 mmHg 83%
    07:00 +4°C° 0 mm 1 mps 676 mmHg 80%
    08:00 +4°C° 0 mm 2 mps 676 mmHg 76%
    09:00 +5°C° 0 mm 2 mps 676 mmHg 73%
    10:00 +6°C° 0 mm 2 mps 676 mmHg 72%
    11:00 +6°C° 0 mm 2 mps 676 mmHg 71%
    12:00 +7°C° 0 mm 2 mps 676 mmHg 70%
    13:00 +7°C° 0 mm 2 mps 675 mmHg 73%
    14:00 +6°C° 0 mm 2 mps 675 mmHg 77%
    15:00 +6°C° 0 mm 2 mps 675 mmHg 80%
    16:00 +5°C° 0 mm 2 mps 675 mmHg 83%
    17:00 +6°C° 0 mm 1 mps 675 mmHg 86%
    18:00 +5°C° 0 mm 1 mps 675 mmHg 89%
    19:00 +5°C° 0 mm 1 mps 675 mmHg 88%
    20:00 +5°C° 0 mm 1 mps 675 mmHg 87%
    21:00 +5°C° 0 mm 1 mps 675 mmHg 86%
    22:00 +4°C° 0 mm 2 mps 675 mmHg 86%
    23:00 +3°C° 0 mm 2 mps 675 mmHg 85%

    23 November, Friday

    Time Temperature Precipitation Wind Pressure Humidity
    00:00 +3°C° 0 mm 2 mps 675 mmHg 85%
    01:00 +3°C° 0 mm 2 mps 675 mmHg 86%
    02:00 +3°C° 0 mm 2 mps 675 mmHg 87%
    03:00 +3°C° 0 mm 2 mps 675 mmHg 88%
    04:00 +2°C° 0.1 mm 3 mps 675 mmHg 89%
    05:00 +2°C° 0.1 mm 3 mps 675 mmHg 90%
    06:00 +2°C° 0.1 mm 3 mps 676 mmHg 91%
    07:00 +2°C° 0.1 mm 3 mps 676 mmHg 89%
    08:00 +2°C° 0.1 mm 3 mps 677 mmHg 87%
    09:00 +3°C° 0.1 mm 3 mps 678 mmHg 84%
    10:00 +3°C° 0.1 mm 3 mps 678 mmHg 83%
    11:00 +3°C° 0.1 mm 3 mps 678 mmHg 81%
    12:00 +3°C° 0.1 mm 3 mps 678 mmHg 80%
    13:00 +3°C° 0.2 mm 3 mps 678 mmHg 82%
    14:00 +2°C° 0.2 mm 3 mps 679 mmHg 83%
    15:00 +2°C° 0.2 mm 3 mps 679 mmHg 85%
    16:00 +1°C° 0.1 mm 3 mps 680 mmHg 86%
    17:00 +1°C° 0.1 mm 3 mps 680 mmHg 87%
    18:00 +1°C° 0.1 mm 3 mps 681 mmHg 87%
    19:00 0°C° 0 mm 3 mps 681 mmHg 87%
    20:00 +1°C° 0 mm 2 mps 682 mmHg 87%
    21:00 +1°C° 0 mm 2 mps 682 mmHg 87%
    22:00 +1°C° 0 mm 2 mps 682 mmHg 87%
    23:00 +1°C° 0 mm 1 mps 682 mmHg 87%
    Show more